Location: Kra?nica
(53.4833°N, 14.6167°E)
Time: 16:00:55
(UTC+00:00)

Cosmos 1455 - Pass Details

Date: 23 May 2024
Orbit: 445 x 461 km, 82.5° (Epoch: 13 June)

Event Time Altitude Azimuth Distance (km) Brightness Sun altitude
Rises 00:24:36 0° 348° (NNW) 2,462 6.7 -13.6°
Reaches altitude 10° 00:26:41 10° 348° (NNW) 1,586 5.6 -13.5°
Maximum altitude 00:30:08 86° 263° (W) 457 1.8 -13.3°
Enters shadow 00:32:26 20° 172° (S) 1,105 3.4 -13.1°
